TimeCDT,TemperatureF,Dew PointF,Humidity,Sea Level PressureIn,VisibilityMPH,Wind Direction,Wind SpeedMPH,Gust SpeedMPH,PrecipitationIn,Events,Conditions,WindDirDegrees,DateUTC
1:56 AM,37.0,28.9,73,29.93,10.0,South,5.8,-,N/A,,Clear,180,2012-10-02 06:56:00
2:56 AM,39.9,30.9,70,29.89,10.0,South,9.2,-,N/A,,Clear,170,2012-10-02 07:56:00
3:56 AM,39.9,30.9,70,29.87,10.0,South,10.4,-,N/A,,Clear,170,2012-10-02 08:56:00
4:56 AM,42.1,30.0,62,29.86,10.0,South,11.5,-,N/A,,Clear,180,2012-10-02 09:56:00
5:56 AM,42.1,28.9,60,29.83,10.0,South,9.2,-,N/A,,Clear,180,2012-10-02 10:56:00
6:56 AM,44.1,28.0,53,29.82,10.0,South,9.2,-,N/A,,Clear,180,2012-10-02 11:56:00
7:56 AM,46.9,28.0,48,29.80,10.0,South,13.8,-,N/A,,Clear,180,2012-10-02 12:56:00
8:56 AM,53.1,28.0,38,29.78,10.0,South,16.1,-,N/A,,Clear,180,2012-10-02 13:56:00
9:56 AM,59.0,30.0,33,29.73,10.0,South,20.7,27.6,N/A,,Clear,180,2012-10-02 14:56:00
10:56 AM,64.0,30.0,28,29.71,10.0,South,21.9,32.2,N/A,,Clear,190,2012-10-02 15:56:00
11:56 AM,70.0,30.9,24,29.71,10.0,South,20.7,29.9,N/A,,Clear,190,2012-10-02 16:56:00
12:56 PM,73.9,32.0,21,29.69,10.0,SSW,21.9,31.1,N/A,,Clear,210,2012-10-02 17:56:00
1:56 PM,77.0,32.0,19,29.68,10.0,SW,12.7,23.0,N/A,,Clear,220,2012-10-02 18:56:00
3:56 PM,77.0,34.0,21,29.68,10.0,West,12.7,17.3,N/A,,Clear,260,2012-10-02 20:56:00
4:56 PM,75.9,35.1,23,29.68,10.0,West,6.9,16.1,N/A,,Clear,280,2012-10-02 21:56:00
5:56 PM,75.0,35.1,23,29.69,10.0,WSW,9.2,-,N/A,,Clear,250,2012-10-02 22:56:00
6:56 PM,71.1,36.0,28,29.71,10.0,West,4.6,-,N/A,,Clear,260,2012-10-02 23:56:00
9:56 PM,55.0,37.9,53,29.79,10.0,Calm,Calm,-,N/A,,Mostly Cloudy,0,2012-10-03 02:56:00
10:56 PM,46.0,34.0,63,29.81,10.0,NW,4.6,-,N/A,,Clear,320,2012-10-03 03:56:00
11:56 PM,46.9,37.0,68,29.81,10.0,Calm,Calm,-,N/A,,Clear,0,2012-10-03 04:56:00